Regional Weather Roundup
Issued by NWS Newport/Morehead, NC

Current Version | Previous Version | Text Only | Print | Product List | Glossary Off
Versions: 1 2 3 4 5 6 7 8 9 10 11 12 13 14 15 16 17 18 19 20 21 22 23 24 25 26 27 28 29 30 31 32 33 34 35 36 37 38 39 40 41 42 43 44 45 46 47 48 49 50
000 ASUS42 KMHX 261622 RWRMHX WEATHER ROUNDUP FOR EASTERN NORTH CAROLINA NATIONAL WEATHER SERVICE NEWPORT/MOREHEAD CITY NC 1100 AM EST FRI DEC 26 2014 NOTE: "FAIR" INDICATES FEW OR NO CLOUDS BELOW 12,000 FEET WITH NO SIGNIFICANT WEATHER AND/OR OBSTRUCTIONS TO VISIBILITY NCZ015>017-031-032-045>047-102-103-261700- NORTH COAST CITY SKY/WX TMP DP RH WIND PRES REMARKS EDENTON SUNNY 51 36 57 W6 30.34F ELIZABETH CITY SUNNY 53 39 59 CALM 30.35F KITTY HAWK SUNNY 51 44 76 W6 30.33F MANTEO SUNNY 52 43 71 W3 30.35S $$ NCZ045>047-081-094-103-104-261700- CENTRAL COAST CITY SKY/WX TMP DP RH WIND PRES REMARKS FRISCO SUNNY 52 45 77 NW7 30.35R SWANQUARTER N/A 54 N/A N/A W1 30.30F $$ NCZ095-097-098-100-101-261700- SOUTHERN COAST CITY SKY/WX TMP DP RH WIND PRES REMARKS BEAUFORT SUNNY 56 42 59 NW5 30.36S CEDAR ISLAND N/A 50 N/A N/A NW3 30.39S JACKSONVILLE SUNNY 53 36 52 CALM 30.36 PINEY ISLAND SUNNY 57 41 55 NW3 30.35F WILMINGTON SUNNY 56 42 59 N5 30.35F $$ NCZ011>013-027>030-043-044-078>080-089-090>093-098-261700- COASTAL PLAIN CITY SKY/WX TMP DP RH WIND PRES REMARKS AHOSKIE SUNNY 48 36 62 CALM 30.35F CLINTON SUNNY 55 38 54 CALM 30.37F ELIZABETHTOWN SUNNY 54 37 52 CALM 30.35F GOLDSBORO SUNNY 52 43 71 VRB1 30.35F GREENVILLE SUNNY 52 34 50 W3 30.36F HAVELOCK MOSUNNY 56 37 49 CALM 30.37F KENANSVILLE SUNNY 54 35 49 CALM 30.38S KINSTON SUNNY 52 34 50 CALM 30.37F NEW BERN SUNNY 56 38 50 CALM 30.37F RICHLANDS SUNNY 55 36 47 CALM 30.37S ROCKY MOUNT SUNNY 50 35 56 S5 30.37S WASHINGTON SUNNY 51 37 58 CALM 30.35F WHITEVILLE SUNNY 55 37 50 CALM 30.34F $$ AMZ130-135-150-152-154-156-158-170-250-252-270-ANZ085-086-088-633-658-670-261700- MARINE OBSERVATIONS STATION/POSITION TIME TEMP WIND PRES WAVE SWELL AIR SEA DIR/SP/G HT/PER HT/PER (UTC) (F) (DEG/KT/KT) (MB) (FT/S) (FT/S) CHESAPEAKE LIGHT 1600 49 100/ 5/ 5 1028.0 64 E VA BEACH 1600 51 52 20/ 4/ 6 1026.9 3/ 8 2/ 8 DUCK 1600 49 51 270/ 4/ 5 1026.7 2 E DUCK 1600 50 N/A 2/ 9 10 NE DUCK 1600 50 N/A 2/ 8 2/15 OREGON INLET 1600 51 54 230/ 4/ 4 1027.5 13E OREGON INLT 1600 51 N/A 3/ 8 2/15 HATTERAS CG 1600 50 54 320/ 6/ 7 1028.0 DIAMOND BUOY 1600 58 1027.4 3/ 8 17 S OCRACOKE NOT AVBL CAPE LOOKOUT 1600 54 360/ 5/ 6 1027.7 BEAUFORT LAB 1600 53 54 10/ 3/ 4 1026.9 30 SE NEW RIVER 1600 55 60 10/ 6/ 8 1027.9 2/ 8 2/ 8 5 SE WRIGHTSVLE NOT AVBL 225 S CAPE HAT 1455 68 73 60/ 10/ 12 1025.7 4/ 6 3/ 6 41 SE CHARLESTON 1600 63 72 30/ 12/ 14 1026.1 2/ 8 2/ 8 $$

USA.gov is the U.S. government's official web portal to all federal, state and local government web resources and services.